TimeCST,TemperatureF,Dew PointF,Humidity,Sea Level PressureIn,VisibilityMPH,Wind Direction,Wind SpeedMPH,Gust SpeedMPH,PrecipitationIn,Events,Conditions,WindDirDegrees,DateUTC
12:53 AM,57.0,30.0,36,30.02,10.0,SSW,5.8,-,N/A,,Clear,210,2013-01-25 06:53:00
1:53 AM,53.1,33.1,47,30.02,10.0,SSW,4.6,-,N/A,,Clear,210,2013-01-25 07:53:00
2:53 AM,50.0,34.0,54,30.03,10.0,SW,4.6,-,N/A,,Clear,220,2013-01-25 08:53:00
3:53 AM,48.9,34.0,56,30.02,10.0,SW,3.5,-,N/A,,Clear,230,2013-01-25 09:53:00
4:53 AM,48.9,34.0,56,30.02,10.0,Calm,Calm,-,N/A,,Clear,0,2013-01-25 10:53:00
5:53 AM,48.0,33.1,56,30.02,10.0,NW,6.9,-,N/A,,Clear,310,2013-01-25 11:53:00
6:53 AM,53.1,32.0,45,30.03,10.0,WNW,6.9,-,N/A,,Clear,290,2013-01-25 12:53:00
7:53 AM,53.1,32.0,45,30.05,10.0,NNW,9.2,-,N/A,,Clear,330,2013-01-25 13:53:00
8:53 AM,55.9,35.1,45,30.07,10.0,WNW,6.9,-,N/A,,Clear,290,2013-01-25 14:53:00
9:53 AM,64.0,37.0,37,30.07,10.0,NNW,15.0,23.0,N/A,,Clear,340,2013-01-25 15:53:00
10:53 AM,66.0,34.0,30,30.10,10.0,North,16.1,-,N/A,,Clear,360,2013-01-25 16:53:00
11:53 AM,64.9,34.0,32,30.12,10.0,North,10.4,-,N/A,,Clear,10,2013-01-25 17:53:00
12:53 PM,64.9,33.1,31,30.09,10.0,North,-9999.0,-,N/A,,Unknown,0,2013-01-25 18:53:00
1:53 PM,66.9,33.1,28,30.07,10.0,ENE,4.6,-,N/A,,Clear,60,2013-01-25 19:53:00
2:53 PM,68.0,32.0,26,30.06,10.0,North,3.5,-,N/A,,Clear,10,2013-01-25 20:53:00
3:53 PM,68.0,33.1,27,30.05,10.0,NE,5.8,-,N/A,,Clear,40,2013-01-25 21:53:00
4:53 PM,64.9,32.0,29,30.05,10.0,NE,8.1,-,N/A,,Clear,50,2013-01-25 22:53:00
5:53 PM,61.0,34.0,36,30.06,10.0,ENE,8.1,-,N/A,,Clear,70,2013-01-25 23:53:00
6:53 PM,57.9,35.1,42,30.07,10.0,ENE,9.2,-,0.00,,Clear,60,2013-01-26 00:53:00
7:53 PM,55.0,36.0,49,30.09,10.0,NE,6.9,-,0.00,,Mostly Cloudy,50,2013-01-26 01:53:00
8:53 PM,55.0,35.1,47,30.08,10.0,East,5.8,-,N/A,,Overcast,100,2013-01-26 02:53:00
9:53 PM,51.1,35.1,54,30.09,10.0,ENE,5.8,-,N/A,,Partly Cloudy,60,2013-01-26 03:53:00
10:53 PM,51.1,36.0,56,30.10,10.0,East,4.6,-,N/A,,Overcast,80,2013-01-26 04:53:00
11:53 PM,50.0,35.1,57,30.10,10.0,East,4.6,-,N/A,,Clear,100,2013-01-26 05:53:00